Location: Most
(50.5133°N, 13.6207°E)
Time: 10:07:50
(UTC+01:00)

Oscar 11 - Pass Details

Date: 06 December 2022
Orbit: 611 x 621 km, 97.6° (Epoch: 28 January)

Event Time Altitude Azimuth Distance (km) Brightness Sun altitude
Rises 06:29:24 0° 359° (N) 2,891 10.3 -12.2°
Reaches altitude 10° 06:32:28 10° 336° (NNW) 1,980 9.2 -11.7°
Enters shadow 06:33:49 14° 318° (NW) 1,752 8.8 -11.5°
